Location: Christian Reformed Church
(43.0975°N, 93.8113°W)
Time: 03:25:29
(UTC+00:00)

Meteor 1-10 Rocket - Pass Details

Date: 13 December 2025
Orbit: 835 x 908 km, 81.3° (Epoch: 13 January)

Event Time Altitude Azimuth Distance (km) Brightness Sun altitude
Rises 12:36:33 0° 348° (NNW) 3,534 7.1 -11.0°
Reaches altitude 10° 12:39:01 10° 348° (NNW) 2,595 6.4 -10.5°
Maximum altitude 12:44:57 82° 263° (W) 922 4.3 -9.5°
Drops below altitude 10° 12:50:52 10° 176° (S) 2,581 7.1 -8.5°
Sets 12:53:19 0° 175° (S) 3,514 7.9 -8.1°
